Regional Weather Roundup
Issued by NWS Cleveland, OH

Home | Current Version | Previous Version | Graphics & Text | Print | Product List | Glossary On
Versions: 1 2 3 4 5 6 7 8 9 10 11 12 13 14 15 16 17 18 19 20 21 22 23 24 25 26 27 28 29 30 31 32 33 34 35 36 37 38 39 40 41 42 43 44 45 46 47 48 49 50
000
ASUS41 KCLE 291700
RWRCLE
OHIO REGIONAL WEATHER ROUNDUP
NATIONAL WEATHER SERVICE WILMINGTON, OH
100 PM EDT SUN MAR 29 2015

NOTE: "FAIR" INDICATES FEW OR NO CLOUDS BELOW 12,000 FEET WITH NO
SIGNIFICANT WEATHER AND/OR OBSTRUCTIONS TO VISIBILITY.

OHZ001>008-015>018-024>027-034-035-043-044-291800-
   NORTHWEST OHIO

CITY           SKY/WX    TMP DP  RH WIND       PRES   REMARKS
DEFIANCE       MOSUNNY   40  22  48 S15G25    30.16F
FINDLAY        MOSUNNY   41  19  41 S22G29    30.20F
TOLEDO EXPRESS MOSUNNY   40  17  39 S15G23    30.17F
TOLEDO EXEC    MOSUNNY   39  16  39 S22G29    30.20F
LIMA           MOSUNNY   40  20  44 S21       30.20F
$$

OHZ009>014-019>023-028>033-038-089-291800-
   NORTHEAST OHIO

CITY           SKY/WX    TMP DP  RH WIND       PRES   REMARKS
CLE-HOPKINS    MOSUNNY   39  15  37 SW17G25   30.27F
CLE-LAKEFRONT  SUNNY     41  14  33 S16G24    30.24F
CUY CO. ARPT   PTSUNNY   41  14  33 S14G23    30.25F
LORAIN-ELYRIA  MOSUNNY   37  18  46 SW17G26   30.24F
ASHTABULA      SUNNY     37  15  40 S15G22    30.25F
AKRON-CANTON   MOSUNNY   38  14  37 S13       30.25F
WOOSTER        NOT AVBL
MANSFIELD      MOSUNNY   37  18  46 S18       30.24F
YOUNGSTOWN     MOSUNNY   37  16  42 S10G20    30.25F
$$

OHZ042-051>053-060>062-070>072-077>081-291800-
  SOUTHWEST OHIO

CITY           SKY/WX    TMP DP  RH WIND       PRES   REMARKS
CINC-COVINGTON PTSUNNY   44  17  33 S20       30.26F
CINC-LUNKEN    MOSUNNY   43  17  35 SE12      30.29F
HAMILTON       MOSUNNY   44  14  29 S10G21    30.28F
DAYTON         NOT AVBL
WRIGHT-PAT AFB MOSUNNY   41  15  33 SE13      30.24F
DAYTON GENERAL MOSUNNY   41  17  38 S15       30.24F
WILMINGTON     MOSUNNY   38  18  44 S14G22    30.28F
$$

OHZ036-037-039>041-045>050-054>059-063>069-073>076-082>088-291800-
  CENTRAL AND SOUTHEAST OHIO

CITY           SKY/WX    TMP DP  RH WIND       PRES   REMARKS
COLUMBUS       PTSUNNY   37  11  34 S10       30.31F
OSU AIRPORT    PTSUNNY   39  13  34 S15G23    30.28F
BOLTON FIELD   NOT AVBL
RICKENBACK AFB NOT AVBL
NEWARK         SUNNY     38  13  35 S14       30.30F
MARION         PTSUNNY   38  15  39 S21G28    30.26F
LANCASTER      SUNNY     40  12  32 S8        30.31F
ZANESVILLE     SUNNY     37  11  34 S10       30.30F
NEW PHILLY     SUNNY     39  14  36 SE12G17   30.29F
$$


USA.gov is the U.S. government's official web portal to all federal, state and local government web resources and services.